Location: ??
(35.5052°N, 139.7262°E)
Time: 17:44:32
(UTC+00:00)

Cosmos 2098 Rocket - Pass Details

Date: 20 June 2021
Orbit: 366 x 1176 km, 82.9° (Epoch: 30 July)

Event Time Altitude Azimuth Distance (km) Brightness Sun altitude
Exits shadow 16:16:44 55° 294° (WNW) 945 3.8 -27.0°
Drops below altitude 10° 16:21:04 10° 356° (N) 2,121 6.5 -26.6°
Sets 16:23:08 0° 1° (N) 2,919 7.5 -26.5°
